Zurück zum Katalog

CZ-6A DEB

AktivPO
NORAD 54307·DEBRIS·🇨🇳 China

Gestartet Nov 11, 2022 von Taiyuan Satellite Launch Center

Loading…

Nächste Überflüge (nächste 24 Stunden)

TLE

AktuellSource: Space-Track

Epoche: Sep 14, 2026, 10:57 UTC

1 54307U 22151BA  26257.45671897  .00056069  00000-0  28733-2 0  9990
2 54307  98.5525 338.1593 0028017 294.2799  65.5505 15.16019831133050

Verfolge CZ-6A DEB in Echtzeit mit AllMySat

Download on the App Store